Showing default

RADUGA 1M-3, 39375

Orbit data source: Space-Track

RADUGA 1M-3, 39375 is a payload satellite owned by VVKO (CIS) in GEO that was launched on Mon, 11 Nov 2013 UTC via a PROTON-M/BRIZ-M launch vehicle from the Tyuratam Missile And Space Complex (TTMTR). Payload-class satellites include a variety of spacecraft equipped with specific instruments for various scientific and technological missions. These include communications satellites like Starlink; space stations such as the ISS; scientific satellites like the Hubble; Earth observation satellites from companies like Planet Labs, Umbra, and HawkEye 360; GPS; miniature CubeSats for education and research; and military/defense satellites.

Not visible in the next 10 days
Identifier
39375, 2013-062A
Orbit
GEO
Country
Flag of CISCIS
Related business
Manufacturer
RESH/POLK
Mission
Operational Defense Communications
Bus & Motor
KAUR-4, Unknown motor
Mass
~2,500 kg wet, ~2,200 kg dry
Launch date (UTC)
2013-11-11 (13 years ago)
Launch vehicle
PROTON-M/BRIZ-M
Launch site
Tyuratam Missile And Space Complex (TTMTR)
Object type
Payload
Rocket body
Debris
Shape & HBR
Step Cyl + 2 Pan, 10.0 m
Radar Cross Section
18.278 m², Large (>1 m²)

Expand to show TLE details & history
Last TLE update: 4 days ago

TLE from 4 days ago
0 RADUGA 1M-3
1 39375U 13062A   26169.79836442  .00000144  00000-0  00000-0 0  9995
2 39375   5.9627  72.3351 0001804 267.8367 249.2637  1.00273348 46125
Epoch: 2026-06-18T19:09Z
TLE epoch observation values (Epoch: 2026-06-18T19:09:38.685Z)
Latitude
2.30728°
Longitude
35.09942°
Altitude
35,788.05 km
Speed
3.075 km/s
True Right ascension
15h 18m 11s
True Declination
2° 18' 18"
Sunlit
Object was in daylight at epoch
Visualization orbit readout
Latitude
Unknown
Longitude
Unknown
Altitude
Unknown
Speed
Unknown
Apparent Right ascension
Unknown
Apparent Declination
Unknown
Sunlit
N/A
Visualization observer readout
Local Sidereal Time
23:08:04
Azimuth
Unknown
Elevation
Unknown
Doppler factor
Unknown
Orbital elements
Apogee altitude
35,794.817 km
Perigee altitude
35,779.604 km
Semi-major axis
42,165.347 km
Eccentricity
0.00018
Inclination
5.9627°
RAAN
72.3351°
Arg. of periapsis
267.8367°
True anomaly
249.24437°
Mean anomaly
249.2637°
Eccentric anomaly
249.25403°
Mean motion
0.25067 °/min
Orbital period
1,436.13 mins
BSTAR
0
Loading maneuver chart data...
Computing Atmospheric mass density...
Loading historical data...
Loading historical data...
Loading historical data...
Loading historical data...
Loading historical data...
Loading historical data...
Loading historical data...
Other satellites on launch #62 in the year 2013 (2013-11-11 UTC)

Documentation

Showing up to 5 results
|